Location: Asheville, NC
(35.6000°N, 82.5500°W)
Time: 18:33:43
(UTC-04:00)

Vanguard 1 Rocket - Pass Details

Date: 17 February 2018
Orbit: 652 x 4225 km, 34.3° (Epoch: 20 May)

Event Time Altitude Azimuth Distance (km) Brightness Sun altitude
Exits shadow 02:15:44 67° 95° (E) 4,216 10.4 -58.6°
Drops below altitude 10° 02:32:26 10° 89° (E) 6,060 11.8 -56.0°
Sets 02:36:12 0° 89° (E) 6,715 12.2 -55.4°
